This is the latest recevied weather packets stored in our database for station/object AB0TJ. If no packets are shown the sender has not sent any weather packets the latest 10 day(s).
| Time | Temp. | Humidity | Pressure | Rain* | Wind** | Luminosity | Snow |
|---|---|---|---|---|---|---|---|
| 1777854204 | 27.78° C | 14% | 1010.4 hPa | 0 mm | - | 248 W/m² | - |
| 1777853659 | 26.67° C | 14% | 1010.5 hPa | 0 mm | - | 256 W/m² | - |
| 1777853119 | 25.56° C | 15% | 1010.6 hPa | 0 mm | - | 325 W/m² | - |
| 1777852544 | 25.56° C | 15% | 1010.6 hPa | 0 mm | - | 91 W/m² | - |
| 1777852029 | 26.11° C | 14% | 1010.6 hPa | 0 mm | - | 98 W/m² | - |
| 1777851494 | 25.56° C | 15% | 1010.7 hPa | 0 mm | - | 372 W/m² | - |
| 1777850959 | 26.11° C | 14% | 1010.7 hPa | 0 mm | - | 200 W/m² | - |
| 1777850479 | 26.11° C | 15% | 1011 hPa | 0 mm | - | 165 W/m² | - |
| 1777849908 | 26.11° C | 14% | 1010.9 hPa | 0 mm | - | 181 W/m² | - |
| 1777849313 | 26.11° C | 15% | 1011.2 hPa | 0 mm | - | 364 W/m² | - |
| 1777848804 | 26.11° C | 15% | 1011 hPa | 0 mm | - | 210 W/m² | - |
| 1777848289 | 26.11° C | 15% | 1011.3 hPa | 0 mm | - | 176 W/m² | - |
| 1777847764 | 25.56° C | 15% | 1011.3 hPa | 0 mm | - | 287 W/m² | - |
| 1777847239 | 25.56° C | 15% | 1011.6 hPa | 0 mm | - | 199 W/m² | - |
| 1777846704 | 25.56° C | 15% | 1011.5 hPa | 0 mm | - | 193 W/m² | - |
| 1777846219 | 25.56° C | 15% | 1011.6 hPa | 0 mm | - | 243 W/m² | - |
| 1777845739 | 25.56° C | 14% | 1011.9 hPa | 0 mm | - | 367 W/m² | - |
| 1777845233 | 25.56° C | 15% | 1011.9 hPa | 0 mm | - | 392 W/m² | - |
| 1777844644 | 26.11° C | 14% | 1012.4 hPa | 0 mm | - | 294 W/m² | - |
| 1777844136 | 26.11° C | 15% | 1012.5 hPa | 0 mm | - | 718 W/m² | - |
| 1777843649 | 25.56° C | 14% | 1012.6 hPa | 0 mm | - | 513 W/m² | - |
| 1777843073 | 26.11° C | 13% | 1012.8 hPa | 0 mm | - | 292 W/m² | - |
| 1777842511 | 26.11° C | 13% | 1013.1 hPa | 0 mm | - | 787 W/m² | - |
| 1777842024 | 25.56° C | 15% | 1013.2 hPa | 0 mm | - | 852 W/m² | - |
| 1777841444 | 25.56° C | 15% | 1013.3 hPa | 0 mm | - | 511 W/m² | - |
* Rain latest hour (hover to see other rain measurements)
** Current wind speed in m/s (hover to see current wind gust speed)